Back to catalog

THORAD AGENA D DEB

AlivePO
NORAD 4822·DEBRIS·🇺🇸 United States

Launched Apr 8, 1970 from Vandenberg Space Force Base

Loading…

Next Passes

TLE

Source: Space-Track
1  4822U 70025ED  26223.97713976  .00001565  00000-0  74557-3 0  9992
2  4822  99.4008  40.3117 0048924 302.3855  57.2590 14.20317746798510

Track THORAD AGENA D DEB in real time with AllMySat

Download on the App Store